User: anonymous   Login
Location: Dentlein
(49.1477°N, 10.4231°E)
Time: 02:32:59
(UTC+00:00)
Language:

YAOGAN 6 - Orbit

View from above orbital plane
View from above orbital plane
View from above satellite
View from above satellite

Ground track
Ground track

The orbit data is extracted from the following two-line orbital elements,

1 34839U 09021A   24194.89195730  .00022974  00000-0  41884-3 0  9993
2 34839  97.1713 162.2098 0019524  87.0643 273.2843 15.49244438847433
Epoch (UTC): 12 July 2024 21:24:25
Eccentricity: 0.0019524
inclination: 97.1713°
perigee height: 405 km
apogee height: 432 km
right ascension of ascending node: 162.2098°
argument of perigee: 87.0643°
revolutions per day: 15.49244438
mean anomaly at epoch: 273.2843°
orbit number at epoch: 84743

The dashed part of the orbit path shows where the satellite is in the earth's shadow,  

DLR